Location: Buisson
(44.2787°N, 4.9969°E)
Time: 05:42:46
(UTC+00:00)

X-37B - Pass Details

Date: 02 October 2021
Orbit: 385 x 389 km, 45.0° (Epoch: 13 October)

Event Time Altitude Azimuth Distance (km) Brightness Sun altitude
Exits shadow 03:20:32 23° 100° (E) 872 2.9 -25.2°
Drops below altitude 10° 03:21:54 10° 100° (E) 1,412 4.2 -24.9°
Sets 03:23:58 0° 101° (E) 2,266 5.4 -24.6°
